Location: Bottens
(46.6171°N, 6.6605°E)
Time: 02:38:00
(UTC+00:00)

Cosmos 405 Rocket - Pass Details

Date: 20 June 2021
Orbit: 489 x 552 km, 81.3° (Epoch: 04 August)

Event Time Altitude Azimuth Distance (km) Brightness Sun altitude
Exits shadow 00:23:40 54° 158° (SSE) 601 2.6 -19.1°
Maximum altitude 00:24:20 70° 99° (E) 526 2.6 -19.1°
Drops below altitude 10° 00:28:01 10° 15° (NNE) 1,692 6.6 -18.9°
Sets 00:30:08 0° 13° (NNE) 2,581 8.0 -18.8°
